Content
SEND FEEDBACK

Daily
Averages
Monthly
Summary
United Kingdom

LONDON, ENGLAND


Home > Europe > United Kingdom > England
Elevation: 203 feet     Latitude: 51 09N     Longitude: 000 11W

WEATHER
 
SELECT A DAY
Number of Records: 292,281;   Date Range: 7/1/96 - 7/9/14
 
SHARE

PRINT THIS DATA

[ ← Previous Day ]
WEATHER ALMANAC - FEBRUARY 3, 2013
[ Next Day → ]
[ °C ]   °F
Weather ElementAverageHighLow
Temperature40.7 °F48.2 °F (6:20 pm)28.4 °F (1:50 am)
Dewpoint35.9 °F44.6 °F (6:20 pm)23 °F (1:20 am)
Humidity82.8 %93 % (8:20 pm)75 % (1:20 am)
Barometer30.08 in30.27 in (1:20 am)29.92 in (11:50 pm)
Wind Speed7.2 mph15 mph (11:20 am)
Weather ElementAverage
Visibility6.2 mi
Wind DirectionSW (221.1 °)

Weather ElementTotal
Precipitation---
Heating Degree Days26.7 (Base 65)
Averaged from 47 records on February 3, 2013
WEATHER CONDITIONS BREAKOUT
WIND DIRECTION BREAKOUT
WEATHER BY HOUR - FEBRUARY 3, 2013
[ °C ]   °F
Local TimeTemperatureDewpointHumidityBarometerVisibilityWind DirectionWind SpeedGust SpeedPrecipitationEventsConditions
12:50 AM30.2 °F24.8 °F80 %30.24 inSW (230°)2.3 mphClear
1:20 AM30.2 °F23.0 °F75 %30.27 inWest (270°)3.5 mphClear
1:50 AM28.4 °F23.0 °F80 %30.27 inSouth (190°)3.5 mphClear
2:20 AM28.4 °F24.8 °F86 %30.24 inSouth (190°)3.5 mphClear
2:50 AM30.2 °F24.8 °F80 %30.24 inSSW (210°)4.6 mphClear
3:20 AM30.2 °F24.8 °F80 %30.24 inSSW (210°)4.6 mphClear
3:50 AM30.2 °F24.8 °F80 %30.24 inSSW (200°)4.6 mphClear
4:20 AM32.0 °F24.8 °F75 %30.24 inSW (220°)4.6 mphClear
4:50 AM32.0 °F24.8 °F75 %30.24 inSW (230°)4.6 mphClear
5:20 AM32.0 °F26.6 °F80 %30.24 inWSW (240°)5.8 mphClear
5:50 AM32.0 °F26.6 °F80 %30.21 inSW (220°)6.9 mphClear
6:20 AM33.8 °F26.6 °F75 %30.21 inSW (220°)6.9 mphClear
6:50 AM33.8 °F26.6 °F75 %30.18 inSW (220°)6.9 mphClear
7:20 AM33.8 °F28.4 °F81 %30.18 inSW (230°)6.9 mphClear
7:50 AM35.6 °F28.4 °F75 %30.18 in6.2 miSW (230°)8.1 mphPartly Cloudy
8:20 AM35.6 °F30.2 °F81 %30.15 inSW (230°)10.4 mphClear
8:50 AM35.6 °F30.2 °F81 %30.15 in6.2 miSW (230°)6.9 mphOvercast
9:20 AM37.4 °F30.2 °F75 %30.12 in6.2 miWSW (240°)8.1 mphMostly Cloudy
9:50 AM39.2 °F32.0 °F75 %30.12 in6.2 miSW (230°)11.5 mphMostly Cloudy
10:20 AM41.0 °F33.8 °F76 %30.09 in6.2 miSW (230°)13.8 mphScattered Clouds
10:50 AM41.0 °F35.6 °F81 %30.09 in6.2 miSW (230°)13.8 mphMostly Cloudy
11:20 AM42.8 °F37.4 °F81 %30.06 in6.2 miSW (230°)15.0 mphMostly Cloudy
11:50 AM42.8 °F39.2 °F87 %30.06 in6.2 miSW (230°)12.7 mphMostly Cloudy
12:20 PM44.6 °F39.2 °F81 %30.04 in6.2 miSW (230°)10.4 mphMostly Cloudy
12:50 PM44.6 °F39.2 °F81 %30.04 in6.2 miSW (230°)8.1 mphOvercast
1:20 PM44.6 °F41.0 °F87 %30.01 in6.2 miWSW (240°)8.1 mphMostly Cloudy
1:50 PM46.4 °F41.0 °F81 %30.01 in6.2 miWSW (240°)8.1 mphOvercast
2:20 PM46.4 °F41.0 °F81 %30.01 in6.2 miWSW (240°)9.2 mphMostly Cloudy
2:50 PM46.4 °F42.8 °F87 %29.98 in6.2 miSW (230°)6.9 mphMostly Cloudy
3:20 PM46.4 °F42.8 °F87 %29.98 in6.2 miSW (230°)6.9 mphMostly Cloudy
3:50 PM46.4 °F42.8 °F87 %30.01 in6.2 miWSW (240°)6.9 mphMostly Cloudy
4:20 PM46.4 °F42.8 °F87 %30.01 in6.2 miWSW (240°)6.9 mphMostly Cloudy
4:50 PM46.4 °F42.8 °F87 %29.98 in6.2 miSW (220°)5.8 mphMostly Cloudy
5:20 PM46.4 °F42.8 °F87 %29.98 in6.2 miSW (220°)4.6 mphMostly Cloudy
5:50 PM46.4 °F42.8 °F87 %29.98 in6.2 miVariable3.5 mphMostly Cloudy
6:20 PM48.2 °F44.6 °F87 %29.98 in6.2 miSW (220°)5.8 mphMostly Cloudy
6:50 PM48.2 °F44.6 °F87 %29.98 in6.2 miSW (220°)5.8 mphMostly Cloudy
7:20 PM48.2 °F44.6 °F87 %29.98 in6.2 miSW (220°)5.8 mphMostly Cloudy
7:50 PM48.2 °F44.6 °F87 %29.98 in6.2 miSW (220°)5.8 mphMostly Cloudy
8:20 PM46.4 °F44.6 °F93 %29.98 in6.2 miSW (220°)5.8 mphMostly Cloudy
8:50 PM46.4 °F42.8 °F87 %29.98 in6.2 miSSW (210°)5.8 mphScattered Clouds
9:20 PM46.4 °F44.6 °F93 %29.95 in6.2 miSSW (210°)5.8 mphScattered Clouds
9:50 PM48.2 °F44.6 °F87 %29.95 in6.2 miSSW (210°)4.6 mphMostly Cloudy
10:20 PM48.2 °F44.6 °F87 %29.95 in6.2 miSSW (210°)6.9 mphMostly Cloudy
10:50 PM48.2 °F44.6 °F87 %29.95 in6.2 miWSW (240°)6.9 mphMostly Cloudy
11:20 PM48.2 °F44.6 °F87 %29.95 in6.2 miWSW (250°)11.5 mphMostly Cloudy
11:50 PM48.2 °F44.6 °F87 %29.92 in6.2 miWSW (240°)11.5 mphMostly Cloudy
Hourly data recorded from EGKK, located miles away from London, England







STORIES FROM OUR PARTNERS